sat.trackr.live / text

‹ back to catalog

UNKNOWN

NORAD 81775

UNKNOWN UNKNOWN UNKNOWN

§ Identity

Operator
Country
Launch date
Launch site
Launch vehicle
Mass (kg)
RCS (m²)

External: N2YO · Heavens-Above

§ Orbital elements

Epoch: 2026-09-18T12:23:24.009504Z

Period
99.72 min
Inclination
82.9191°
Eccentricity
0.0018655
Mean motion
14.44059213 rev/d
Perigee alt
731.8 km
Apogee alt
758.4 km
Semi-major
7,123.3 km
B*
9.1920e-4
RAAN
351.6853°
Arg perigee
97.9573°
Mean anomaly
262.3739°
Rev number
66,561

§ Raw data

UNKNOWN1 81775U          26261.51625011  .00003168  00000+0  91920-3 0  99972 81775  82.9191 351.6853 0018655  97.9573 262.3739 14.44059213665615

JSON: /api/v1/satellites/81775 · /tle

For live sub-satellite position, see the globe view (requires WebGL).

§ Visibility from observer

Set your observer location to see the next 7 days of passes ≥ 10°. The values pass through the URL so the page stays shareable.

No JS? Fill the form by hand. The geolocation button needs JavaScript.